Time,TemperatureF,DewpointF,PressureIn,WindDirection,WindDirectionDegrees,WindSpeedMPH,WindSpeedGustMPH,Humidity,HourlyPrecipIn,Conditions,Clouds,dailyrainin,SoftwareType,DateUTC
2013-05-05 00:07:00,47.5,39.0,30.18,West,276,0.0,2.0,71,0.00,,,0.00,weatherlink.com 1.10,2013-05-05 04:07:00,
2013-05-05 00:22:00,47.0,38.0,30.18,SW,225,0.0,2.0,71,0.00,,,0.00,weatherlink.com 1.10,2013-05-05 04:22:00,
2013-05-05 00:37:00,46.6,37.0,30.18,WNW,289,0.0,2.0,70,0.00,,,0.00,weatherlink.com 1.10,2013-05-05 04:37:00,
2013-05-05 00:52:00,46.2,37.0,30.18,West,279,0.0,3.0,70,0.00,,,0.00,weatherlink.com 1.10,2013-05-05 04:52:00,
2013-05-05 01:07:00,46.1,36.0,30.17,SW,227,1.0,3.0,69,0.00,,,0.00,weatherlink.com 1.10,2013-05-05 05:07:00,
2013-05-05 01:22:00,46.1,36.0,30.17,NNE,30,0.0,3.0,67,0.00,,,0.00,weatherlink.com 1.10,2013-05-05 05:22:00,
2013-05-05 01:37:00,45.8,35.0,30.16,NNE,18,0.0,3.0,66,0.00,,,0.00,weatherlink.com 1.10,2013-05-05 05:37:00,
2013-05-05 01:52:00,45.7,35.0,30.16,NE,38,6.0,6.0,67,0.00,,,0.00,weatherlink.com 1.10,2013-05-05 05:52:00,
2013-05-05 02:07:00,45.6,36.0,30.15,East,90,0.0,2.0,69,0.00,,,0.00,weatherlink.com 1.10,2013-05-05 06:07:00,
2013-05-05 02:23:00,45.4,36.0,30.15,WSW,239,0.0,3.0,69,0.00,,,0.00,weatherlink.com 1.10,2013-05-05 06:23:00,
2013-05-05 02:38:00,45.3,36.0,30.14,NW,309,1.0,4.0,70,0.00,,,0.00,weatherlink.com 1.10,2013-05-05 06:38:00,
2013-05-05 02:53:00,45.6,36.0,30.14,ENE,69,0.0,4.0,68,0.00,,,0.00,weatherlink.com 1.10,2013-05-05 06:53:00,
2013-05-05 03:08:00,45.3,36.0,30.14,SW,232,2.0,3.0,69,0.00,,,0.00,weatherlink.com 1.10,2013-05-05 07:08:00,
2013-05-05 03:23:00,45.0,35.0,30.14,NNE,22,0.0,3.0,68,0.00,,,0.00,weatherlink.com 1.10,2013-05-05 07:23:00,
2013-05-05 03:38:00,45.0,35.0,30.13,SSE,156,0.0,3.0,68,0.00,,,0.00,weatherlink.com 1.10,2013-05-05 07:38:00,
2013-05-05 03:53:00,44.6,35.0,30.13,South,177,0.0,3.0,68,0.00,,,0.00,weatherlink.com 1.10,2013-05-05 07:53:00,
2013-05-05 04:08:00,44.7,34.0,30.12,South,177,1.0,2.0,67,0.00,,,0.00,weatherlink.com 1.10,2013-05-05 08:08:00,
2013-05-05 04:23:00,45.5,33.0,30.12,ESE,109,3.0,6.0,62,0.00,,,0.00,weatherlink.com 1.10,2013-05-05 08:23:00,
2013-05-05 04:38:00,45.2,31.0,30.12,ENE,78,0.0,4.0,59,0.00,,,0.00,weatherlink.com 1.10,2013-05-05 08:38:00,
2013-05-05 04:53:00,44.5,31.0,30.12,ESE,105,0.0,2.0,59,0.00,,,0.00,weatherlink.com 1.10,2013-05-05 08:53:00,
2013-05-05 05:08:00,44.3,30.0,30.12,SSW,194,0.0,2.0,57,0.00,,,0.00,weatherlink.com 1.10,2013-05-05 09:08:00,
2013-05-05 05:23:00,44.2,29.0,30.11,SSE,163,1.0,3.0,55,0.00,,,0.00,weatherlink.com 1.10,2013-05-05 09:23:00,
2013-05-05 05:38:00,43.7,30.0,30.12,East,92,3.0,5.0,59,0.00,,,0.00,weatherlink.com 1.10,2013-05-05 09:38:00,
2013-05-05 05:53:00,43.6,31.0,30.12,NNE,28,0.0,5.0,61,0.00,,,0.00,weatherlink.com 1.10,2013-05-05 09:53:00,
2013-05-05 06:08:00,42.7,30.0,30.12,North,355,0.0,2.0,61,0.00,,,0.00,weatherlink.com 1.10,2013-05-05 10:08:00,
2013-05-05 06:23:00,41.8,29.0,30.12,SW,219,1.0,3.0,62,0.00,,,0.00,weatherlink.com 1.10,2013-05-05 10:23:00,
2013-05-05 06:38:00,41.4,29.0,30.13,WSW,237,0.0,1.0,61,0.00,,,0.00,weatherlink.com 1.10,2013-05-05 10:38:00,
2013-05-05 06:53:00,41.7,29.0,30.13,SW,222,0.0,2.0,60,0.00,,,0.00,weatherlink.com 1.10,2013-05-05 10:53:00,
2013-05-05 07:08:00,43.3,28.0,30.14,NE,56,0.0,3.0,56,0.00,,,0.00,weatherlink.com 1.10,2013-05-05 11:08:00,
2013-05-05 07:23:00,44.9,29.0,30.13,NE,53,0.0,3.0,54,0.00,,,0.00,weatherlink.com 1.10,2013-05-05 11:23:00,
2013-05-05 07:38:00,44.8,30.0,30.14,NE,51,2.0,8.0,56,0.00,,,0.00,weatherlink.com 1.10,2013-05-05 11:38:00,
2013-05-05 07:53:00,43.9,31.0,30.14,ENE,71,2.0,5.0,62,0.00,,,0.00,weatherlink.com 1.10,2013-05-05 11:53:00,
2013-05-05 08:08:00,44.0,33.0,30.14,NE,34,2.0,4.0,66,0.00,,,0.00,weatherlink.com 1.10,2013-05-05 12:08:00,
2013-05-05 08:23:00,44.2,33.0,30.14,ENE,76,2.0,5.0,65,0.00,,,0.00,weatherlink.com 1.10,2013-05-05 12:23:00,
2013-05-05 08:38:00,44.4,34.0,30.14,ENE,78,2.0,6.0,66,0.00,,,0.00,weatherlink.com 1.10,2013-05-05 12:38:00,
2013-05-05 08:53:00,43.9,34.0,30.14,NE,55,6.0,9.0,67,0.00,,,0.00,weatherlink.com 1.10,2013-05-05 12:53:00,
2013-05-05 09:08:00,44.1,33.0,30.14,ENE,78,3.0,10.0,66,0.00,,,0.00,weatherlink.com 1.10,2013-05-05 13:08:00,
2013-05-05 09:23:00,44.8,33.0,30.14,ESE,102,3.0,7.0,63,0.00,,,0.00,weatherlink.com 1.10,2013-05-05 13:23:00,
2013-05-05 09:38:00,44.8,34.0,30.14,NNE,27,2.0,8.0,66,0.00,,,0.00,weatherlink.com 1.10,2013-05-05 13:38:00,
2013-05-05 09:53:00,45.4,35.0,30.14,ENE,67,3.0,10.0,67,0.00,,,0.00,weatherlink.com 1.10,2013-05-05 13:53:00,
2013-05-05 10:08:00,46.5,35.0,30.13,NE,52,6.0,9.0,64,0.00,,,0.00,weatherlink.com 1.10,2013-05-05 14:08:00,
2013-05-05 10:24:00,46.9,34.0,30.13,ENE,58,4.0,9.0,62,0.00,,,0.00,weatherlink.com 1.10,2013-05-05 14:24:00,
2013-05-05 10:39:00,47.3,34.0,30.13,NE,55,4.0,8.0,60,0.00,,,0.00,weatherlink.com 1.10,2013-05-05 14:39:00,
2013-05-05 10:54:00,47.5,34.0,30.13,North,5,4.0,15.0,59,0.00,,,0.00,weatherlink.com 1.10,2013-05-05 14:54:00,
2013-05-05 11:09:00,48.2,35.0,30.12,NE,36,4.0,7.0,61,0.00,,,0.00,weatherlink.com 1.10,2013-05-05 15:09:00,
2013-05-05 11:24:00,48.5,35.0,30.13,North,5,2.0,11.0,59,0.00,,,0.00,weatherlink.com 1.10,2013-05-05 15:24:00,
2013-05-05 11:39:00,49.9,36.0,30.13,ENE,62,2.0,8.0,60,0.00,,,0.00,weatherlink.com 1.10,2013-05-05 15:39:00,
2013-05-05 11:54:00,49.6,36.0,30.12,NNE,17,2.0,9.0,59,0.00,,,0.00,weatherlink.com 1.10,2013-05-05 15:54:00,
2013-05-05 12:09:00,50.3,35.0,30.12,NE,34,3.0,11.0,57,0.00,,,0.00,weatherlink.com 1.10,2013-05-05 16:09:00,
2013-05-05 12:24:00,51.1,36.0,30.12,NNE,33,4.0,11.0,57,0.00,,,0.00,weatherlink.com 1.10,2013-05-05 16:24:00,
2013-05-05 12:39:00,51.5,37.0,30.12,SW,217,2.0,8.0,57,0.00,,,0.00,weatherlink.com 1.10,2013-05-05 16:39:00,
2013-05-05 12:54:00,53.0,37.0,30.11,NE,49,2.0,7.0,54,0.00,,,0.00,weatherlink.com 1.10,2013-05-05 16:54:00,
2013-05-05 13:09:00,53.4,38.0,30.11,North,355,2.0,12.0,56,0.00,,,0.00,weatherlink.com 1.10,2013-05-05 17:09:00,
2013-05-05 13:24:00,53.3,37.0,30.11,NE,42,2.0,13.0,54,0.00,,,0.00,weatherlink.com 1.10,2013-05-05 17:24:00,
2013-05-05 13:39:00,53.9,37.0,30.11,North,355,6.0,12.0,53,0.00,,,0.00,weatherlink.com 1.10,2013-05-05 17:39:00,
2013-05-05 13:54:00,53.8,36.0,30.11,WNW,292,1.0,17.0,52,0.00,,,0.00,weatherlink.com 1.10,2013-05-05 17:54:00,
2013-05-05 14:09:00,54.4,37.0,30.10,NNE,20,7.0,9.0,52,0.00,,,0.00,weatherlink.com 1.10,2013-05-05 18:09:00,
2013-05-05 14:24:00,55.3,37.0,30.10,ENE,59,5.0,17.0,51,0.00,,,0.00,weatherlink.com 1.10,2013-05-05 18:24:00,
2013-05-05 14:39:00,56.4,36.0,30.10,ENE,57,9.0,13.0,46,0.00,,,0.00,weatherlink.com 1.10,2013-05-05 18:39:00,
2013-05-05 14:54:00,56.0,37.0,30.09,ENE,59,3.0,11.0,49,0.00,,,0.00,weatherlink.com 1.10,2013-05-05 18:54:00,
2013-05-05 15:09:00,56.9,38.0,30.08,NE,45,8.0,9.0,49,0.00,,,0.00,weatherlink.com 1.10,2013-05-05 19:09:00,
2013-05-05 15:24:00,57.1,37.0,30.08,North,5,0.0,13.0,48,0.00,,,0.00,weatherlink.com 1.10,2013-05-05 19:24:00,
2013-05-05 15:39:00,58.2,37.0,30.08,NW,315,1.0,4.0,46,0.00,,,0.00,weatherlink.com 1.10,2013-05-05 19:39:00,
2013-05-05 15:54:00,58.1,38.0,30.07,WNW,302,1.0,9.0,48,0.00,,,0.00,weatherlink.com 1.10,2013-05-05 19:54:00,
2013-05-05 16:09:00,57.1,38.0,30.07,NE,46,4.0,10.0,50,0.00,,,0.00,weatherlink.com 1.10,2013-05-05 20:09:00,
2013-05-05 16:24:00,56.8,39.0,30.07,NNE,26,2.0,9.0,51,0.00,,,0.00,weatherlink.com 1.10,2013-05-05 20:24:00,
2013-05-05 16:39:00,57.3,39.0,30.07,North,10,4.0,8.0,51,0.00,,,0.00,weatherlink.com 1.10,2013-05-05 20:39:00,
2013-05-05 16:54:00,57.5,39.0,30.07,North,355,3.0,8.0,50,0.00,,,0.00,weatherlink.com 1.10,2013-05-05 20:54:00,
2013-05-05 17:09:00,56.7,39.0,30.07,NE,55,4.0,5.0,52,0.00,,,0.00,weatherlink.com 1.10,2013-05-05 21:09:00,
2013-05-05 17:24:00,56.6,39.0,30.07,ENE,60,4.0,8.0,52,0.00,,,0.00,weatherlink.com 1.10,2013-05-05 21:24:00,
2013-05-05 17:39:00,56.3,40.0,30.07,NNE,16,3.0,10.0,54,0.00,,,0.00,weatherlink.com 1.10,2013-05-05 21:39:00,
2013-05-05 17:54:00,56.0,41.0,30.08,ENE,65,2.0,7.0,57,0.00,,,0.00,weatherlink.com 1.10,2013-05-05 21:54:00,
2013-05-05 18:09:00,56.4,41.0,30.08,NE,53,3.0,4.0,56,0.00,,,0.00,weatherlink.com 1.10,2013-05-05 22:09:00,
2013-05-05 18:24:00,55.5,40.0,30.08,NNW,329,0.0,9.0,57,0.00,,,0.00,weatherlink.com 1.10,2013-05-05 22:24:00,
2013-05-05 18:39:00,55.0,40.0,30.07,ESE,105,0.0,10.0,58,0.00,,,0.00,weatherlink.com 1.10,2013-05-05 22:39:00,
2013-05-05 18:54:00,54.0,40.0,30.07,NNW,337,2.0,7.0,59,0.00,,,0.00,weatherlink.com 1.10,2013-05-05 22:54:00,
2013-05-05 19:09:00,53.7,40.0,30.07,SE,124,0.0,3.0,60,0.00,,,0.00,weatherlink.com 1.10,2013-05-05 23:09:00,
2013-05-05 19:24:00,53.2,40.0,30.07,NE,52,1.0,4.0,62,0.00,,,0.00,weatherlink.com 1.10,2013-05-05 23:24:00,
2013-05-05 19:39:00,52.7,40.0,30.08,East,94,0.0,2.0,63,0.00,,,0.00,weatherlink.com 1.10,2013-05-05 23:39:00,
2013-05-05 19:54:00,52.5,41.0,30.08,WSW,257,1.0,3.0,65,0.00,,,0.00,weatherlink.com 1.10,2013-05-05 23:54:00,
2013-05-05 20:09:00,52.2,41.0,30.09,ENE,71,1.0,2.0,66,0.00,,,0.00,weatherlink.com 1.10,2013-05-06 00:09:00,
2013-05-05 20:24:00,52.0,41.0,30.09,NNE,23,0.0,4.0,67,0.00,,,0.00,weatherlink.com 1.10,2013-05-06 00:24:00,
2013-05-05 20:39:00,51.7,41.0,30.09,ENE,58,0.0,3.0,67,0.00,,,0.00,weatherlink.com 1.10,2013-05-06 00:39:00,
2013-05-05 20:54:00,51.4,41.0,30.09,SE,128,2.0,5.0,68,0.00,,,0.00,weatherlink.com 1.10,2013-05-06 00:54:00,
2013-05-05 21:09:00,51.2,41.0,30.09,North,355,3.0,6.0,69,0.00,,,0.00,weatherlink.com 1.10,2013-05-06 01:09:00,
2013-05-05 21:24:00,50.8,41.0,30.09,NW,306,1.0,6.0,69,0.00,,,0.00,weatherlink.com 1.10,2013-05-06 01:24:00,
2013-05-05 21:39:00,50.5,41.0,30.10,NE,51,5.0,7.0,70,0.00,,,0.00,weatherlink.com 1.10,2013-05-06 01:39:00,
2013-05-05 21:54:00,50.3,41.0,30.11,NE,44,0.0,7.0,71,0.00,,,0.00,weatherlink.com 1.10,2013-05-06 01:54:00,
2013-05-05 22:09:00,50.2,41.0,30.11,NE,43,0.0,5.0,71,0.00,,,0.00,weatherlink.com 1.10,2013-05-06 02:09:00,
2013-05-05 22:24:00,50.0,41.0,30.11,WNW,298,0.0,3.0,71,0.00,,,0.00,weatherlink.com 1.10,2013-05-06 02:24:00,
2013-05-05 22:39:00,49.9,42.0,30.11,NW,313,0.0,3.0,73,0.00,,,0.00,weatherlink.com 1.10,2013-05-06 02:39:00,
2013-05-05 22:54:00,49.6,42.0,30.11,NE,50,2.0,6.0,74,0.00,,,0.00,weatherlink.com 1.10,2013-05-06 02:54:00,
2013-05-05 23:09:00,49.2,42.0,30.11,NE,38,6.0,11.0,76,0.00,,,0.00,weatherlink.com 1.10,2013-05-06 03:09:00,
2013-05-05 23:25:00,48.9,42.0,30.12,NNE,31,4.0,10.0,78,0.00,,,0.00,weatherlink.com 1.10,2013-05-06 03:25:00,
2013-05-05 23:39:00,48.8,43.0,30.12,ENE,60,5.0,10.0,79,0.00,,,0.00,weatherlink.com 1.10,2013-05-06 03:39:00,
2013-05-05 23:55:00,48.8,43.0,30.11,NNE,17,1.0,8.0,79,0.00,,,0.00,weatherlink.com 1.10,2013-05-06 03:55:00,